Notices

What's New in latest Release from April 7th, 2021:

- Updated Glossary, including Speed of Maximum Gust, and Total Hourly Precipitation

- Updated national and regional climate services offices contacts and prices information

- Addition of station inventory lists for 1981-2010, 1971-2000, and 1961-1990 Normals.

If you haven't already, please take our survey and provide feedback about our website: https://eccc.sondage-survey.ca/f/LanguageSelection.aspx?s=442ca660-fcf1-47c0-95a9-59707d6fd709

Hourly Data Report for December 23, 2020

CARBERRY CS
MANITOBA
Current Station Operator: ECCC - MSC

49°54'20.900" N
99°21'26.800" W
383.50 m
5010547
71170
WZE

Download Data

Hourly Data (December 2020)
Hourly Data Report for December 23, 2020
TIME
LST
Temp Definition
°C
Dew Point Definition
°C
Rel Hum Definition
%
Precip. Amount Definition
mm

Wind Dir Definition
10's deg

Wind Spd Definition
km/h
Visibility Definition
km
Stn Press Definition
kPa
Hmdx Definition


Wind Chill Definition


Weather Definition


00:00 -16.9 -18.9 84 0.0 1 40   96.47   -30 LegendNANA
01:00 -17.5 -19.6 84 0.2 36 39   96.57   -31 LegendNANA
02:00 -18.3 -20.6 82 0.0 36 40   96.73   -32 LegendNANA
03:00 -18.6 -21.1 81 0.0 35 27   96.96   -30 LegendNANA
04:00 -19.0 -21.7 79 0.0 36 28   97.07   -31 LegendNANA
05:00 -19.7 -22.3 79 0.0 35 29   97.21   -32 LegendNANA
06:00 -20.0 -23.3 75 0.0 35 22   97.32   -31 LegendNANA
07:00 -20.2 -24.0 72 0.0 35 23   97.45   -31 LegendNANA
08:00 -20.6 -25.7 64 0.0 35 19   97.48   -31 LegendNANA
09:00 -21.1 -27.6 56 0.0 34 20   97.51   -32 LegendNANA
10:00 -21.1 -27.6 56 0.0 34 20   97.56   -32 LegendNANA
11:00 -20.6 -27.5 54 0.0 34 22   97.57   -32 LegendNANA
12:00 -19.7 -27.5 50 0.0 35 16   97.55   -29 LegendNANA
13:00 -19.1 -27.2 49 0.0 35 19   97.47   -29 LegendNANA
14:00 -18.7 -27.1 47 0.0 34 15   97.47   -27 LegendNANA
15:00 -18.7 -26.9 48 0.0 34 13   97.50   -27 LegendNANA
16:00 -19.3 -25.7 57 0.0 34 7   97.47   -25 LegendNANA
17:00 -21.8 -26.9 63 0.0 31 10   97.50   -29 LegendNANA
18:00 -22.3 -26.8 67 0.0 32 7   97.52   -28 LegendNANA
19:00 -24.3 -28.0 71 0.0 28 3   97.49   -27 LegendNANA
20:00 -25.1 -28.3 75 0.0 30 4   97.47   -29 LegendNANA
21:00 -26.3 -29.4 75 0.0 27 6   97.44   -32 LegendNANA
22:00 -27.0 -29.9 76 0.0 26 6   97.42   -33 LegendNANA
23:00 -26.8 -29.8 76 0.0 27 11   97.44   -36 LegendNANA

Notes on Data Quality.

Legend

  • E = Estimated
  • M = Missing
  • NA = Not Available*
  • [empty] = Indicates an unobserved value
Date modified: